Location: Houghton National Wildlife Management Area
(48.8294°N, 97.2726°W)
Time: 00:30:59
(UTC+00:00)

Daily predictions for brighter satellites

Satellite Brightness Start Highest point End
(mag) Time Altitude Azimuth Time Altitude Azimuth Time Altitude Azimuth
H-2A R/B 2.9 00:00:52 10° S 00:04:43 75° WSW 00:08:34 10° NNW
Cosmos 2084 3.5 00:00:43 10° NW 00:05:03 80° SW 00:09:16 10° SE
COBE Rocket 3.8 00:01:33 10° NNE 00:06:23 61° E 00:11:02 10° S
NOSS 7 (D) 3.8 00:03:30 10° SW 00:06:27 86° SE 00:08:09 21° NE
TELKOM 3 3.1 00:07:28 10° W 00:09:36 55° SSW 00:10:31 27° SE
Meteor 2-20 4.4 00:07:20 10° S 00:13:21 64° E 00:19:27 10° NNE
Cosmos 1862 4.0 00:10:08 10° N 00:13:42 31° ENE 00:17:16 10° SE
ATLAS 3B R/B 4.2 00:08:55 10° WNW 00:14:06 23° N 00:19:00 11° NE
CSL-04 Rocket 3.9 00:09:16 10° SE 00:14:18 43° ENE 00:19:18 10° N
Genesis I 3.2 00:11:15 10° SSW 00:15:16 72° SE 00:17:56 20° NE
FengYun 1-2 T 4.2 00:11:55 10° SSE 00:17:21 62° ENE 00:22:47 10° N
Cosmos 1980 Rocket 4.1 00:15:34 10° SE 00:16:23 12° ESE 00:16:23 12° ESE
Cosmos 2227 Rocket 2.1 00:12:35 10° NNW 00:18:17 74° ENE 00:23:56 10° SE
Cosmos 2297 Rocket 2.1 00:13:01 10° NNW 00:18:43 79° ENE 00:24:22 10° SSE
BREEZE-M DEB (TANK) 2.0 00:17:52 10° W 00:21:34 74° N 00:22:16 41° ENE
YAOGAN 1 2.8 00:21:30 10° SE 00:25:38 46° ENE 00:29:48 10° N
BREEZE-M DEB (TANK) 2.8 00:17:35 10° W 00:26:36 88° NNW 00:28:13 31° E
Cosmos 1607 4.0 00:20:47 10° NW 00:27:00 83° SW 00:33:17 10° SSE
Envisat 3.0 00:22:00 10° SSE 00:27:05 88° WSW 00:32:12 10° NNW
Meteor 2-2 Rocket 4.3 00:24:47 10° S 00:30:40 89° WNW 00:36:29 10° NNE
Cosmos 2221 3.5 00:26:30 10° SSW 00:30:41 50° WNW 00:34:56 10° N
Okean-O 3.2 00:26:42 10° S 00:31:04 60° WSW 00:35:28 10° NNW
Cosmos 2369 4.3 00:29:35 10° S 00:34:38 35° ESE 00:36:29 28° ENE
Cosmos 1356 Rocket 3.3 00:31:59 10° S 00:36:07 72° E 00:40:20 10° NNE
USA 116 4.3 00:36:31 20° NNE 00:39:22 47° E 00:44:07 10° S
CZ-4 R/B 4.3 00:36:24 10° SSE 00:40:32 88° ENE 00:44:42 10° NNW
Lacrosse 4 Rocket 2.4 00:38:11 10° S 00:41:02 28° SE 00:41:02 28° SE
BREEZE-M DEB (TANK) 3.7 00:38:00 10° SW 00:42:18 24° SSE 00:42:59 23° SE
SKYMED 2 3.4 00:38:44 10° NNE 00:43:05 75° ESE 00:47:26 10° S
Cosmos 2263 Rocket 3.4 00:39:57 10° N 00:44:08 22° NE 00:44:08 22° NE
Cosmos 2082 3.6 00:39:11 10° NNW 00:44:49 75° ENE 00:50:26 10° SSE
ERBS 4.0 00:42:07 10° S 00:43:54 21° SSE 00:43:54 21° SSE
SeaSat 1 3.7 00:41:20 10° S 00:46:02 43° WSW 00:50:45 10° NW
Cosmos 1513 Rocket 4.5 00:42:55 10° N 00:49:23 86° E 00:55:46 10° S
USA 215 3.3 00:46:49 28° E 00:50:24 68° NNE 00:56:54 10° NW
Cosmos 2034 Rocket 3.9 00:44:36 10° N 00:50:56 67° ENE 00:57:16 10° SSE
Cosmos 2278 4.2 00:49:54 10° S 00:55:03 37° ESE 00:55:07 37° ESE
Cosmos 1697 Rocket 2.9 00:52:44 10° S 00:58:08 48° ESE 00:59:16 42° ENE
CZ-4 R/B 1.9 00:55:32 10° S 00:59:40 63° WSW 01:03:46 10° NNW
USA 229 DEB 3.6 00:53:36 10° SW 01:00:12 86° SE 01:04:16 27° NE
USA 229 3.6 00:53:43 10° SW 01:00:18 86° SE 01:04:19 27° NE
Cosmos 1680 Rocket 3.7 00:56:57 10° S 01:01:51 46° ESE 01:01:51 46° ESE
Cosmos 1869 4.4 00:58:42 10° SSW 01:02:30 44° WNW 01:06:18 10° N
ATLAS 5 CENTAUR R/B 3.0 00:58:17 10° NW 01:03:55 55° SW 01:10:21 10° SSE
CZ-2D R/B 3.7 01:05:58 48° N 01:05:58 48° N 01:08:53 10° N
NOSS 3-1 (A) 3.3 00:59:57 10° SSW 01:05:23 59° ESE 01:07:05 44° ENE
Meteor 2-11 Rocket 4.3 00:59:18 10° N 01:05:27 81° E 01:11:36 10° SSE
NOSS 3-1 (C) 3.2 01:01:04 10° SW 01:06:41 87° SE 01:09:37 34° NE
Ariane Rocket 2.9 01:09:14 54° ESE 01:09:58 61° ENE 01:15:00 10° N
H-2A R/B 3.8 01:13:44 19° NNE 01:13:44 19° NNE 01:15:34 10° N
Tsikada Rocket 4.0 01:06:57 10° S 01:13:09 59° E 01:19:26 10° NNE
Cosmos 1633 3.7 01:09:51 10° NNW 01:13:21 44° W 01:16:49 10° SSW
Cosmos 1634 Rocket 4.2 01:07:55 10° N 01:13:26 45° ENE 01:13:26 45° ENE
Cosmos 1939 Rocket 3.1 01:17:16 65° N 01:17:16 65° N 01:20:50 10° NNW
Cosmos 1816 Rocket 4.4 01:15:58 10° S 01:22:15 71° E 01:28:37 10° NNE
Cosmos 923 Rocket 3.9 01:20:37 10° SSW 01:25:51 89° WNW 01:26:51 60° NNE
Cosmos 1633 Rocket 3.9 01:21:49 10° NNW 01:26:05 50° W 01:30:20 10° SSW
NOAA 11 4.3 01:23:03 10° S 01:28:27 74° WSW 01:33:55 10° NNW
Cosmos 724 4.1 01:23:28 10° NW 01:29:23 90° SSW 01:30:24 63° SE
Cosmos 2056 Rocket 3.6 01:25:20 10° NNW 01:29:35 57° N 01:29:35 57° N
Cosmos 1624 Rocket 4.0 01:25:14 10° NNW 01:30:09 69° NNE 01:30:09 69° NNE
COSMO-SKYMED 1 4.0 01:26:58 10° N 01:31:00 37° WNW 01:35:00 10° SW
MOS 1 4.3 01:34:11 60° NNE 01:34:11 60° NNE 01:39:05 10° N
Cosmos 1656 4.1 01:30:38 10° SW 01:36:06 57° WNW 01:38:21 34° N
CENTAUR R/B 4.0 01:44:33 10° NW 01:51:03 31° NNE 01:51:34 31° NNE
USA 238 DEB 4.5 01:44:46 10° NW 01:50:57 39° NNE 01:50:57 39° NNE
USA 238 4.5 01:44:53 10° NW 01:51:03 39° NNE 01:51:03 39° NNE
Cosmos 1980 Rocket 3.6 01:55:40 10° SSW 01:58:13 28° SSW 01:58:13 28° SSW
ATLAS 3B R/B 4.0 02:01:32 10° NW 02:06:15 26° N 02:06:15 26° N
Lacrosse 4 Rocket 4.2 02:16:37 10° WSW 02:17:25 15° WSW 02:17:25 15° WSW
Cosmos 2263 Rocket 3.8 02:23:19 10° NNW 02:25:50 28° NNW 02:25:50 28° NNW
USA 215 3.9 02:34:11 49° WSW 02:34:11 49° WSW 02:39:57 10° WNW
Cosmos 1697 Rocket 4.3 02:37:08 10° WSW 02:41:03 31° WNW 02:41:03 31° WNW
ATLAS 2AS CENTAUR R/B 4.4 09:16:04 28° NNE 09:16:04 28° NNE 09:22:19 10° ENE
USA 234 4.1 09:49:15 10° ENE 09:54:18 43° NNE 09:54:18 43° NNE
COSMOS 2406 4.5 10:00:59 36° NE 10:00:59 36° NE 10:04:21 10° NNE
Cosmos 2082 Rocket 3.7 10:10:36 25° SE 10:12:48 33° ESE 10:17:51 10° NE
Cosmos 1934 Rocket 4.3 10:21:13 42° SSE 10:23:21 67° E 10:29:40 10° NNE
Cosmos 1833 Rocket 2.9 10:33:07 65° SE 10:33:18 66° ESE 10:38:53 10° NNE
Lacrosse 5 2.9 10:33:30 41° SE 10:33:37 41° SE 10:38:22 10° ENE
CZ-2C R/B 3.4 10:31:07 10° NNE 10:35:52 44° E 10:39:17 17° SSE
SL-4 R/B 3.2 10:39:42 48° NE 10:39:42 48° NE 10:43:25 10° ENE
ASTEX 1 4.4 10:34:07 10° SSE 10:38:49 45° ENE 10:43:34 10° N
CZ-4C R/B 3.3 10:40:47 35° N 10:40:47 35° N 10:45:40 10° NE
IDEFIX/ARIANE 42P 3.8 10:34:34 10° NNE 10:37:15 31° N 10:37:15 31° N
SL-16 R/B 3.9 10:38:18 15° N 10:42:04 29° NE 10:46:56 10° ESE
Meteor 1-31 Rocket 4.0 10:45:45 10° NNE 10:49:23 40° E 10:49:35 40° ESE
Cosmos 2123 Rocket 3.8 10:44:58 10° NNW 10:51:08 72° W 10:57:18 10° S
Cosmos 1980 Rocket 2.2 10:49:53 55° NNW 10:51:11 79° ENE 10:56:53 10° SSE
Cosmos 2322 Rocket 3.9 10:48:58 13° N 10:53:12 29° NE 10:58:07 10° ESE
COSMO-SKYMED 1 4.2 10:49:39 10° SE 10:53:33 33° ENE 10:57:28 10° N
Cosmos 1869 4.2 10:56:25 45° NE 10:56:49 47° ENE 11:00:36 10° SSE
SJ 16-02 3.3 10:55:47 10° SSE 10:59:31 28° E 11:03:16 10° NE
Cosmos 1605 Rocket 3.9 11:01:00 10° S 11:07:14 90° SE 11:13:25 10° N
ATLAS 2AS CENTAUR R/B 3.5 11:03:31 21° NNW 11:08:44 52° NE 11:15:48 10° ESE
Cosmos 2369 4.5 11:10:46 35° SSW 11:10:46 35° SSW 11:14:30 10° S
Okean O Rocket 4.3 11:07:31 10° NE 11:10:44 20° E 11:13:56 10° SE
Meteor 2-2 Rocket 4.1 11:05:05 10° NNW 11:10:45 84° W 11:16:23 10° S
Cosmos 839 Rocket 4.3 11:05:42 14° SSW 11:12:05 76° ESE 11:18:20 10° NE
Gbstr 26 Del rocket 4.3 11:11:25 25° S 11:12:26 28° SE 11:15:41 10° E
PAYLOAD A 4.0 11:07:14 10° N 11:12:32 75° WNW 11:16:20 20° SSW
H-2A R/B 2.7 11:09:51 10° N 11:13:46 60° NNW 11:13:46 60° NNW
SL-27 R/B 4.0 11:12:19 17° SSE 11:14:25 33° ESE 11:17:27 10° NE
FALCON 9 DEB 3.7 11:17:39 55° ENE 11:17:39 55° ENE 11:20:25 10° ENE
Meteor 1-27 4.3 11:15:16 27° NNW 11:18:21 57° W 11:24:02 10° S
Cosmos 2112 Rocket 3.9 11:16:16 37° NNW 11:18:24 78° WSW 11:23:43 10° SSE
COBE Rocket 3.9 11:14:51 10° SSE 11:20:01 89° E 11:25:09 10° NNW
Cosmos 2360 4.3 11:19:33 48° WNW 11:20:35 55° WSW 11:26:09 10° S
COSMOS 2455 3.3 11:19:47 19° NNW 11:24:10 58° NE 11:30:05 10° SE
ALOS 4.0 11:20:14 10° NNE 11:24:29 33° E 11:28:43 10° SSE
Cosmos 1680 Rocket 3.5 11:24:36 43° NW 11:26:06 59° WSW 11:31:18 10° S
ADEOS 4.3 11:23:22 10° N 11:27:14 34° NW 11:27:14 34° NW
PSLV R/B 4.3 11:24:31 10° NNE 11:28:17 58° E 11:32:09 10° S
Cosmos 2278 4.0 11:29:02 41° W 11:29:22 41° WSW 11:34:40 10° S
MSX 4.0 11:24:02 10° N 11:29:33 48° WNW 11:31:57 31° WSW
Cosmos 1697 Rocket 3.6 11:32:26 29° SW 11:32:26 29° SW 11:36:09 10° SSW
CZ-4B R/B 4.0 11:29:05 10° N 11:33:33 70° WNW 11:38:01 10° SSW
USA 116 4.2 11:32:40 10° SE 11:35:44 47° ENE 11:39:04 10° N
Cosmos 2084 Rocket 3.6 11:35:14 49° WNW 11:35:52 54° NW 11:40:16 10° NE
USA 234 3.8 11:31:35 10° E 11:37:47 47° N 11:41:38 23° NW
BREEZE-M DEB (TANK) 3.4 11:39:10 31° SSW 11:39:10 31° SSW 11:42:40 10° SE
SKYMED 2 3.5 11:37:12 10° SSE 11:41:32 85° WSW 11:45:56 10° NNW
Cosmos 158 Rocket 3.7 11:39:16 20° NNW 11:42:44 73° WSW 11:47:35 10° SSE
COSMOS 2406 4.2 11:43:05 27° NW 11:43:27 27° NW 11:48:19 10° NNE
Cosmos 1328 Rocket 4.3 11:43:44 10° N 11:48:00 52° ENE 11:52:13 10° SSE
Cosmos 990 Rocket 4.0 11:43:31 10° SSW 11:48:41 86° ESE 11:53:56 10° NNE
Lacrosse 5 rocket 2.6 11:49:20 21° NNW 11:50:11 22° N 11:53:06 10° ENE
CZ-4B DEB 4.5 11:46:11 10° NNE 11:51:40 72° ESE 11:57:08 10° S
Cosmos 1151 Rocket 3.7 11:50:28 10° N 11:54:49 57° ENE 11:59:06 10° SSE
STARLINK-67 3.3 11:55:16 36° N 11:55:31 37° NNE 11:58:01 10° E
